logo
Search for airport 
image banner adimage banner adimage banner ad
image banner ad

UGSB - Batumi

Located in Batumi, Georgia

ICAO - UGSB, IATA - BUS

Data provided by Airmate  

General information

Coordinates: N41°36'37" E41°35'58"
Elevation is 37 feet MSL.
Magnetic variation is 7° East
View others Airports in Adjara

Operational data

Special qualification required
Current time UTC:
Current local time:
Weather
METAR: UGSB 171900Z 13003KT 9999 FEW040 OVC050 22/21 Q1017 NOSIG
TAF: TAF UGSB 171700Z 1718/1818 VRB02KT 9999 SCT030 BKN060 TX25/1812Z TN21/1802Z PROB40 TEMPO 1718/1723 5000 TSRA SCT020CB TEMPO 1723/1807 12010KT 4500 SHRA SCT010 BKN020CB BECMG 1806/1807 33010KT
View NOTAMs / SUP AIP / TFR affecting this airport [VIEW]
Communications frequencies: [VIEW]

Runways:

RWY identifierQFULength (ft)Width (ft)SurfaceLDA (ft)
12131°8202148CONC+ASPH8202
30311°8202148CONC+ASPH8202

Airport contact information

Address: Batumi Georgia

Satellite view of UGSB